Location: Mohawk View
(42.7837°N, 73.7885°W)
Time: 09:28:06
(UTC+00:00)

Meteor 1-24 Rocket - Pass Details

Date: 01 November 2021
Orbit: 790 x 927 km, 81.3° (Epoch: 27 November)

Event Time Altitude Azimuth Distance (km) Brightness Sun altitude
Rises 09:35:47 0° 193° (SSW) 3,300 6.7 -21.3°
Reaches altitude 10° 09:38:07 10° 195° (SSW) 2,387 5.9 -20.9°
Maximum altitude 09:43:30 75° 281° (W) 859 3.5 -19.9°
Drops below altitude 10° 09:49:08 10° 7° (N) 2,486 6.2 -18.9°
Sets 09:51:37 0° 9° (N) 3,448 7.0 -18.4°
